{"data":{"norad_id":53266,"intl_designator":"2022-086AA","name":"STARLINK-4058","alt_names":[],"object_type":"PAYLOAD","status":"ACTIVE","operator":null,"country":"US","launch_date":"2022-07-24","launch_site_code":"AFETR","launch_vehicle":null,"mission":null,"orbit_class":"UNKNOWN","rcs_meters":null,"size_class":null,"mass_kg":null,"dimensions":null,"purposes":["comms"],"wikipedia_slug":null,"has_3d_model":false,"image_url":null,"decayed_at":null,"tle_current":{"epoch":"2026-05-24T23:17:18.043008Z","epoch_age_seconds":87904,"freshness":"FRESH","line1":"1 53266U 22086AA  26144.97034772 -.00000109  00000+0  11199-4 0  9991","line2":"2 53266  53.2116 211.6848 0000919  79.6502 280.4594 15.08840415212586","mean_motion":15.08840415,"eccentricity":9.19e-5,"inclination_deg":53.2116,"raan_deg":211.6848,"arg_perigee_deg":79.6502,"mean_anomaly_deg":280.4594,"bstar":1.1199e-5,"rev_number":21258,"period_min":95.437528428081,"perigee_km":539.10636738425,"apogee_km":540.37787356659,"semimajor_km":6917.8791204754,"source":"CELESTRAK","updated_at":"2026-05-25T13:38:17.365321Z"}}}